GFSFLT2_prec_radar_234.txt.gz
Reflectivity
-20 -20 -20 -20 -20 -20 -20 -20 -20 -20 -20 -20 -20 -20 -20 -20 -20 -20 -20 -20 -20 -20 -20 -20 -20 -20 -20 -20 -20 -20 -20 -20
-20 -20 -20 -20 -20 -9 -20 -20 -20 -20 -20 -20 -20 -20 -20 -20 -20 -20 -20 -20 -20 -20 -20 -20 -20 -20 -20 -20 -20 -20 -20 -20
-20 -20 -20 -20 -20 -20 -20 -20 -20 -20 -20 -20 -19 -20 -20 -20 -20 -20 -20 -20 -20 -20 -20 -20 -20 -20 -20 -20 -20 -20 -20 -20
-20 -20 -20 -16 -14 -18 -19 -20 -20 -20 -20 -20 -19 -12 -16 -20 -20 -20 -20 -20 -20 -20 -20 -20 -20 -20 -20 -20 -20 -20 -20 -20
-20 -8 -14 -8 6 -9 -16 -19 -20 -20 -20 -20 -20 -19 3 -20 -20 -20 -20 -20 -20 -20 -20 -20 -20 -20 -20 -20 -20 -20 -20 -20
-20 -20 -16 -17 -19 -20 -15 -14 -12 -20 -20 -20 -20 -20 -20 -20 -20 -20 -20 -20 -20 -20 -20 -20 -20 -20 -20 -20 -20 -20 -20 -20
-20 -20 -20 -20 -17 -6 -20 1 -5 -5 -20 -2 -5 -14 -20 -9 -20 -20 -20 -20 -20 -20 -20 -20 -20 -20 -20 -13 -20 -20 -20 -20
-20 -20 -20 -20 -20 -4 -18 13 1 31 -0 11 17 8 4 0 5 17 23 14 -7 -1 -17 -2 -8 2 2 3 14 1 -9 -20
-20 -20 -20 -20 -20 -20 15 4 1 22 -0 23 -19 -11 15 25 -20 -20 -3 14 11 13 32 31 13 -19 -19 -5 6 11 9 5
-20 -20 -20 -20 -20 -20 -20 11 9 -3 -17 -9 -20 -20 -20 -20 5 -16 25 12 24 7 19 8 5 32 32 19 -15 -20 -20 -20
-20 -20 -20 -20 -20 -20 -20 -20 -20 -20 -20 -20 -20 -20 -20 -20 -20 -20 -20 4 12 21 9 19 17 3 9 31 28 -13 -20 -20
-20 -20 -20 -20 -20 -20 -20 -20 -20 -20 -20 -20 -20 -20 -20 -20 -20 -20 -20 -20 -18 10 15 22 17 22 2 8 28 22 18 -14
-20 -20 -20 -20 -20 -20 -20 -20 -20 -20 -20 -20 -20 -20 -20 -20 -20 -20 -20 -20 -20 -20 -16 26 24 24 22 10 0 23 22 14
-20 -20 -20 -20 -20 -20 -20 -20 -20 -20 -20 -20 -20 -20 -20 -20 -20 -20 -20 -20 -20 -20 -20 -16 11 22 29 9 22 26 22 10
-20 -20 -20 -20 -20 -20 -20 -20 -20 -20 -20 -20 -20 -20 -20 -20 -20 -20 -20 -20 -20 -20 -20 -20 -19 3 37 34 23 8 24 20
-20 -20 -20 -20 -20 -20 -20 -20 -20 -20 -20 -20 -20 -20 -20 -20 -20 -20 -20 -20 -20 -7 -17 -20 -20 -20 -16 -3 39 36 35 36
-20 -20 -20 -20 -20 -20 -20 -20 -20 -20 -20 -20 -20 -20 -20 -20 -20 -20 -20 -20 -20 -13 -20 -20 -20 -10 -20 21 13 22 40 37
-20 -20 -20 -20 -20 -20 -20 -20 -20 -20 -20 -20 -20 -20 -20 -20 -20 -20 -20 -20 -20 -20 -20 -7 12 12 7 14 13 24 17 20
-20 -20 -20 -20 -20 -20 -20 -20 -20 -20 -20 -20 -20 -20 -20 -20 -20 -20 -20 -20 -20 -20 -20 -10 20 16 8 16 19 31 24 25
-20 -20 -20 -20 -20 -20 -20 -20 -20 -20 -20 -20 -20 -18 -18 -20 -20 5 -20 -20 -20 -20 -20 -20 -20 21 8 31 21 27 35 32

GFSFLT2_prec_radar_237.txt.gz
Reflectivity
-20 -20 -20 -20 -20 -20 -20 -20 -20 -20 -20 -20 -20 -20 -20 -20 -20 -20 -20 -20 -20 -20 -20 -20 -20 -20 -20 -20 -20 -20 -20 -20
-20 -20 -20 -20 -20 -8 -20 -20 -20 -20 -20 -20 -20 -20 -20 -20 -20 -20 -20 -20 -20 -20 -20 -20 -20 -20 -20 -20 -20 -20 -20 -20
-20 -20 -20 -20 -20 -20 -20 -20 -20 -20 -20 -20 -2 -20 -20 -20 -20 -20 -20 -20 -20 -20 -20 -20 -20 -20 -20 -20 -20 -20 -20 -20
-20 -16 -14 -17 -15 -19 -20 -20 -20 -20 -20 -20 -20 -20 -20 -13 -20 -20 -20 -20 -20 -20 -20 -20 -20 -20 -20 -20 -20 -20 -20 -20
-20 -5 -18 -19 -20 -19 -16 -13 -17 -19 -11 3 -10 -20 -19 7 -20 -20 -20 -20 -20 -20 -20 -20 -20 -20 -20 -20 -20 -20 -20 -20
-20 -20 11 -20 -18 6 -2 -2 -1 -3 -19 -20 -20 -20 -20 -20 -20 4 -20 -20 -20 -20 -20 -20 -20 -20 -20 -20 -20 -20 -20 -20
-20 -20 -20 -20 -17 28 20 14 1 18 28 32 -1 25 21 4 29 -3 4 -16 11 -15 -20 -20 -20 -20 -20 -20 -20 -20 -20 -11
-20 -20 -20 -20 -20 -20 -12 -17 17 3 0 6 14 10 20 24 15 15 19 24 9 7 2 12 8 17 -0 9 14 1 16 -12
-20 -20 -20 -20 -20 -20 -20 -10 -1 3 -9 -2 -8 11 6 8 26 14 -5 3 26 19 28 15 -5 6 33 34 3 21 21 8
-20 -20 -20 -20 -20 -20 -20 -20 -20 -17 0 -3 -7 -14 -20 -10 -20 -20 -18 -20 -20 -17 16 17 22 8 -5 -12 22 31 22 -17
-20 -20 -20 -20 -20 -20 -20 -20 -20 -20 -20 -20 -20 -20 -20 -20 -20 -20 -20 -20 -20 -20 -20 -1 17 10 10 -4 -14 -20 5 10
-20 -20 -20 -20 -20 -20 -20 -20 -20 -20 -20 -20 -20 -20 -20 -20 -20 -20 -20 -20 -20 -20 -20 -20 -20 -1 23 14 -20 -20 -20 -20
-20 -20 -20 -20 -20 -20 -20 -20 -20 -20 -20 -20 -20 -20 -20 -20 -20 -20 -20 -20 -20 -20 -20 -20 -20 -20 -20 19 25 1 -5 -20
-20 -20 -20 -20 -20 -20 -20 -20 -20 -20 -20 -20 -20 -20 -20 -20 -20 -20 -20 -20 -20 -20 -20 -20 -20 -20 -20 -20 -20 16 -12 21
-20 -20 -20 -20 -20 -20 -20 -20 -20 -20 -20 -20 -20 -20 -20 -20 -20 -20 -20 -20 -20 -20 -20 -20 -1 -20 -20 12 -20 -17 22 13
-20 -20 -20 -20 -20 -20 -20 -20 -20 -20 -20 -20 -20 -20 -20 -20 -20 -20 -20 -20 -20 -20 -20 -20 -19 -5 -20 -20 13 8 9 -18
-20 -20 -20 -20 -20 -20 -20 -20 -20 -20 -20 -20 -20 -20 -20 -20 -20 -20 -20 -20 -20 -20 -20 -20 -20 -14 13 -14 0 -20 -10 17
-9 -9 -20 -20 -20 -20 -20 -20 -20 -20 -20 -20 -20 -20 -20 -20 -20 -20 -20 -20 -16 -16 -20 -20 -20 -20 -20 -20 -8 15 1 5
-0 5 -4 -6 -20 -20 -20 -20 -20 -20 -20 -20 -20 -20 -20 -20 -20 -20 -20 -20 -20 -20 -20 -20 -20 -20 -20 -8 5 -8 17 15
1 -20 -20 -20 -20 -20 -20 -20 -20 -20 -20 -20 -20 -20 -20 -20 -20 -20 -20 -20 -20 -20 -20 -20 -20 -20 -20 -20 -18 0 -0 18

GFSFLT2_prec_radar_240.txt.gz
Reflectivity
-20 -20 -20 -20 -20 -20 -20 -20 -20 -20 -20 -20 -20 -20 -20 -20 -20 -20 -20 -20 -20 -20 -20 -20 -20 -20 -20 -20 -20 -20 -20 -20
-20 -20 -20 -20 -20 9 -20 -20 -20 -20 -20 -20 -20 -20 -20 -20 -20 -20 -20 -20 -20 -20 -20 -20 -20 -20 -20 -20 -20 -20 -20 -20
-20 -20 -20 -20 -20 -11 -8 -20 -20 -14 -20 -20 -1 -20 -20 -20 -20 -20 -20 -20 -20 -20 -20 -20 -20 -20 -20 -20 -20 -20 -20 -20
-20 -20 -20 -20 -20 -20 -20 -14 -14 -20 -17 -19 -20 -20 -20 -3 0 -20 -20 -20 -20 -20 -20 -20 -20 -20 -20 -20 -20 -20 -20 -20
-20 -20 -20 -20 -20 -20 -20 3 0 -17 -7 -6 12 -5 -20 -4 -5 -4 -18 -1 -20 -20 -20 -20 -20 -8 -20 -20 -20 -20 -20 -20
-20 -20 -20 -20 -20 -20 -20 -20 -20 -2 -12 11 -7 -20 -9 5 -14 20 17 4 4 -16 -20 -20 -20 -20 -20 -20 -20 -20 -20 -20
-20 -20 -20 -20 -20 -20 8 -4 -20 -20 -20 -20 -20 2 -1 16 -12 -10 -8 -4 11 -1 20 11 1 -7 8 -1 -7 -2 -18 -15
-20 -20 -20 -20 -20 -20 -12 -20 -20 -20 -20 -20 -20 -20 -20 -20 -20 -20 -17 -2 -17 16 15 19 19 5 24 7 -2 33 25 5
-20 -20 -20 -20 -20 -20 -20 -20 -20 -20 -20 -20 -20 -20 -20 -20 -20 -20 -20 -20 -20 -20 -19 -17 29 11 -1 -7 -1 4 -2 27
-20 -20 -20 -20 -20 -20 -20 -20 -20 -20 -20 -20 -20 -20 -20 -20 -20 -20 -20 -20 -20 -20 -20 -20 -20 -3 18 13 -1 8 10 -8
-20 -20 -20 -20 -20 -20 -20 -20 -20 -20 -20 -20 -20 -20 -20 -20 -20 -20 -20 -20 -20 -20 -20 -20 -20 -20 -20 -20 8 23 -12 6
-20 -20 -20 -20 -20 -20 -20 -20 -20 -20 -20 -20 -20 -20 -20 -20 -20 -20 -20 -20 -20 -20 -20 -20 -20 -20 -20 -20 2 -5 15 22
-20 -20 -20 -20 -20 -20 -20 -20 -20 -20 -20 -20 -20 -20 -20 -20 -20 -20 -20 -20 -20 -20 -20 -20 -20 -20 -20 -20 -20 -20 -20 -20
-20 -20 -2 -19 -20 -20 -20 -20 -20 -20 -20 -20 -20 -20 -20 -20 -20 -20 -20 -20 -20 -20 -20 -20 -20 -20 5 -20 -20 -20 -20 -20
-20 -20 -14 -9 -2 -1 -1 -20 -20 -20 -20 -20 -20 -20 -20 -20 -20 -20 -20 -20 -20 -20 -20 -19 -8 -16 -20 -3 -4 -7 -20 -20
-20 -20 -3 -19 16 -4 -20 -20 -20 -20 -20 -20 -20 -20 -20 -20 -20 -20 -20 -20 -20 -20 -20 -5 -10 -20 -20 -20 12 18 15 -3
10 5 5 19 13 -10 -20 -20 -20 -20 -20 -20 -20 -20 -20 -20 -20 -20 -20 -20 -20 -20 -20 -20 -20 -16 -20 -16 -20 -20 -20 -2
29 29 16 27 8 5 22 5 -16 -17 -20 -19 -20 -20 -20 -20 -20 -20 -20 -20 -20 -20 -20 -20 -20 -20 -20 -20 -9 -5 -17 -4
-11 25 16 1 6 -1 -19 2 -14 -20 -20 -20 -20 -20 -20 -20 -20 -20 -20 -20 -20 -20 -20 -20 -20 -20 -20 -20 -20 -20 -20 5
25 2 -3 -9 -2 -20 -20 -20 -20 -20 -20 -20 -20 -20 -20 -20 -20 -20 -20 -20 -20 -20 -20 -20 -20 -20 -20 -20 -20 -20 -20 5

GFSFLT2_prec_radar_243.txt.gz
Reflectivity
-20 -20 -20 -20 -20 -20 -20 -20 -20 -20 -20 -20 -20 -20 -20 -20 -20 -20 -20 -20 -20 -20 -20 -20 -20 -20 -20 -20 -20 -20 -20 -20
-20 -20 -20 -20 -20 -20 -20 -20 -20 -20 -20 -20 -20 -20 -20 -20 -20 -20 -20 -20 -20 -20 -20 -20 -20 -20 -20 -20 -20 -20 -20 -20
-20 -20 -20 -20 -20 -13 -12 -13 -20 -20 -16 -15 -1 -8 -20 -6 -20 -20 -20 -20 -20 -20 -20 -20 -20 -20 -20 -20 -20 -20 -20 -20
-13 -4 -9 -10 -20 -20 -20 -20 -20 -20 -20 -20 -20 -19 -20 -20 -20 -15 -20 -20 -20 -20 -20 -20 -1 -10 -20 -20 -20 -20 -20 -20
-20 -20 -20 -20 -17 14 5 -16 5 -9 -16 3 -20 -8 9 21 10 -20 -20 -20 -20 -17 6 2 -6 -1 -17 -20 -20 -20 -20 -20
-20 -20 -20 -20 -20 -9 -9 -5 1 -20 -20 -20 -20 -20 -19 -20 2 3 3 -1 -11 -19 -20 -20 8 -19 -20 -6 -20 -20 -20 -20
-20 -20 -20 -20 -18 -20 -20 -20 -10 -20 -20 -20 -20 -20 -20 -20 -20 -20 -20 -20 -20 -15 6 13 9 -2 -20 -20 -20 -20 -13 -20
-20 -20 -20 -20 -20 -20 -20 -20 -19 -1 -11 -20 -20 -20 -20 -20 -20 -20 -20 -20 -20 -20 -20 -20 -7 14 14 -16 -10 -19 -20 -16
-20 -20 -20 -20 -20 -20 -20 -20 8 14 4 -16 16 -20 -20 -20 -20 -20 -20 -20 -20 -20 -20 -20 -20 -20 5 16 -7 -19 -18 -20
-20 -20 -20 -20 -20 -20 -20 -20 -20 -20 -20 -20 -20 -20 -20 -20 -20 -20 -20 -20 -20 -20 -20 -20 -20 -20 -20 -20 -20 12 23 15
-20 -20 -20 -20 -20 -20 -20 -20 -20 -20 -20 -20 -20 -20 -20 -20 -20 -20 -20 -20 -20 -20 -20 -20 -20 -20 -20 -20 -20 -14 -5 -2
-20 -20 -20 -20 -6 -12 -20 -20 -20 -20 -20 -20 -20 -20 -20 -20 -20 -20 -20 -20 -20 -20 -20 -20 -20 -20 -20 -20 -20 -20 -20 -20
-20 -20 -20 -7 3 -20 20 -15 -20 -20 -20 -20 -20 -20 -20 -20 -20 -20 -20 -20 -20 -20 -20 -20 -20 -20 -20 -20 -20 -20 -20 -20
-4 5 -0 -5 -8 -20 -20 22 6 -15 -20 -20 -20 -20 -20 -20 -20 -20 -20 -20 -20 -20 -20 -20 -17 -2 -14 -20 -20 -20 -20 -20
-20 -20 -20 -20 -20 -20 -20 -20 -19 -13 -11 -20 -20 -20 -20 -20 -20 -20 -20 -20 -16 0 -9 -9 -9 -20 -20 -5 -20 -20 -20 -20
11 6 -20 -20 -20 -20 -20 -20 -20 -17 -18 -3 -20 -20 -20 -20 -20 -20 -20 -20 1 5 7 4 -5 -20 -20 -14 -14 7 -7 -20
5 -10 28 30 34 24 21 20 2 -0 7 5 -20 -19 -19 -20 -20 -20 -20 -20 -20 -8 -11 8 5 6 -3 -20 -20 -20 -20 -18
-18 8 18 14 22 19 27 15 19 23 15 2 -16 -6 -1 -20 -20 -20 -20 -20 -20 -20 -20 -20 -20 -12 0 1 -16 -15 -20 -20
-20 -20 -18 -1 -13 1 17 11 11 11 7 5 4 1 -15 -17 -20 -20 -20 -20 -20 -20 -20 -20 -20 -20 -12 -10 -20 -18 -9 -13
-20 -20 -20 -6 24 28 27 13 -20 -20 -10 -5 -11 -20 -20 -20 -20 -20 -20 -20 -20 -20 -20 -17 2 -18 -18 -19 -10 -18 -20 -0